Weather in Kozova

Ukraine / Ternopil District     49°25′53″N   25°09′33″E
temp.,
°C
wind,
m/s
gust,
m/s
humid.,
%
clouds,
%
prec.,
mm/h
press.,
hPa
HPBL,
m
16 april, fri
fri1600:00+1w61097100 0.0 1017424
03:00+1w61197100 0.1 1016512
06:00+1w61397100 0.6 1015464
09:000w71498100 2.9 1015584
12:00+1w81497100 1.3 1015627
15:00+1w81597100 2.3 1015586
18:00+2w71597100 0.2 1016673
21:00+1w71397100 0.3 1017686
17 april, sat
sat1700:00+1w61197100 0.0 1018595
03:00+1w61298100 0.6 1018513
06:00+1w51198100 0.3 1018518
09:00+2w41098100 0.6 1020418
12:00+3wnw4896100 0.1 1020473
15:00+5nw4581100 0.1 1020808
18:00+5nw2380100 0.0 1020643
21:00+3ne22895 0.0 102111
18 april, sun
sun1800:00+2ne119145 0.0 102110
03:00+1n11926 0.0 102011
06:000nne229713 0.0 102024
09:00+4nne218896 0.0 1020225
12:00+8ene2272100 0.0 1018647
15:00+11ene1261100 0.0 10171046
18:00+11ene2359100 0.0 10171171
21:00+8ne3677100 0.0 1018106
19 april, mon
mon1900:00+6e3891100 0.0 1018216
03:00+5e3695100 0.0 1017144
06:00+5e3596100 0.0 1017106
09:00+8e4782100 0.0 1017529
12:00+7e4677100 0.1 1016462
15:00+12ese3550100 0.1 10141780
18:00+11ene666085 0.1 1013977
21:00+7ene51079100 0.1 1014323
20 april, tue
tue2000:00+5ne3588100 0.1 101394
03:00+5n2382100 0.1 101241
06:00+5nnw3681100 0.0 1010161
09:00+7nnw4678100 0.1 1010305
12:00+8n566797 0.4 10091194
15:00+10nnw785956 0.5 10081541
18:00+9nw576555 0.1 10071151
21:00+6wnw37885 0.3 1008148